User: anonymous   Login
Location: Anjeux
(47.8815°N, 6.2076°E)
Time: 06:08:00
(UTC+00:00)
Language:

CZ-4C R/B - Orbit

View from above orbital plane
View from above orbital plane
View from above satellite
View from above satellite

Ground track
Ground track

The orbit data is extracted from the following two-line orbital elements,

1 36416U 10009D   21134.09830569 -.00000075  00000-0  16202-4 0  9999
2 36416  63.4226  31.7457 0527448 355.5786   4.0685 13.69593630559626
Epoch (UTC): 14 May 2021 02:21:33
Eccentricity: 0.0527448
inclination: 63.4226°
perigee height: 612 km
apogee height: 1390 km
right ascension of ascending node: 31.7457°
argument of perigee: 355.5786°
revolutions per day: 13.69593630
mean anomaly at epoch: 4.0685°
orbit number at epoch: 55962

The dashed part of the orbit path shows where the satellite is in the earth's shadow,  

DLR